THOR ABLESTAR DEB, 478

Orbit data source: Space-Track

THOR ABLESTAR DEB, 478 is space debris in LEO originally from a launch on Thu, 29 Jun 1961 UTC launched from the Air Force Eastern Test Range (AFETR). Debris objects in space refer to the collection of defunct objects orbiting the Earth. Examples of debris include non-operational satellites, rocket bodies, and fragments generated from explosions, collisions, or faulty payload assembly.

Loading next visibility...
Identifier
478, 1961-015FQ
Orbit
LEO
Country
Flag of USUS
Related business
Manufacturer
Unknown
Mission
Spacecraft
Bus & Motor
Unknown
Mass
Unknown
Launch date (UTC)
1961-06-29 (65 years ago)
Launch vehicle
Unknown
Launch site
Air Force Eastern Test Range (AFETR)
Object type
Payload
Rocket body
Debris
Shape & HBR
Unknown shape, 0.1 m
Radar Cross Section
Small (<0.1 m²)

Expand to show TLE details & history
Last TLE update: 9 hours ago

TLE from 9 hours ago
0 THOR ABLESTAR DEB
1   478U 61015FQ  26130.50603316  .00008106  00000-0  72791-3 0  9992
2   478  66.0577 277.7916 0032569 317.6178  42.2432 14.95832751378559
Epoch: 2026-05-10T12:08Z
TLE epoch observation values (Epoch: 2026-05-10T12:08:41.265Z)
Latitude
-0.00003°
Longitude
-132.68849°
Altitude
565.164 km
Speed
7.588 km/s
True Right ascension
18h 31m 09s
True Declination
0° 00' 00"
Sunlit
Object was in full shadow at epoch
Visualization orbit readout
Latitude
Unknown
Longitude
Unknown
Altitude
Unknown
Speed
Unknown
Apparent Right ascension
Unknown
Apparent Declination
Unknown
Sunlit
N/A
Visualization observer readout
Local Sidereal Time
05:38:34
Azimuth
Unknown
Elevation
Unknown
Doppler factor
Unknown
Orbital elements
Apogee altitude
600.849 km
Perigee altitude
555.536 km
Semi-major axis
6,956.329 km
Eccentricity
0.00326
Inclination
66.0577°
RAAN
277.7916°
Arg. of periapsis
317.6178°
True anomaly
42.49486°
Mean anomaly
42.2432°
Eccentric anomaly
42.36895°
Mean motion
3.74087 °/min
Orbital period
96.23 mins
BSTAR
0.00072791
Loading maneuver chart data...
Computing Atmospheric mass density...

Documentation

Showing up to 5 results
|